Home   Weather   Launceston   Past weeks

Flag for Australia Past Weather in Launceston, Tasmania, Australia — Yesterday and Last 2 Weeks

Now
52 °F

Clear.


Feels Like: 49 °F
Forecast: 42 / 72 °F
Wind: 8 mph from South

Location: Launceston Airport

Current Time: Jan 20, 2017 at 11:18:39 pm

Latest Report: Jan 20, 2017 at 10:30 pm


Visibility: N/A

Pressure: 29.65 "Hg

Humidity: 88%

Dew Point: 48 °F

Location of LauncestonLocation

Past Weather in Launceston — Graph

°F

Launceston Temperature Yesterday

Maximum temperature yesterday: 72 °F (at 4:00 pm)
Minimum temperature yesterday: 43 °F (at 3:30 am)
Average temperature yesterday: 57 °F

High & Low Weather Summary for the Past Weeks

 TemperatureHumidityPressure
High88 °F (Jan 8, 2:00 pm)100% (Jan 13, 2:30 pm)30.15 "Hg (Jan 13, 2:30 pm)
Low43 °F (Jan 15, 4:30 am)24% (Jan 18, 2:00 pm)29.21 "Hg (Jan 13, 4:30 pm)
Average62 °F64%29.73 "Hg
* Reported Jan 5 10:00 pm — Jan 20 10:00 pm, Launceston, Weather by CustomWeather, © 2017

Note: Actual official high and low records may vary slightly from our data, if they occured in-between our weather recording intervals... More about our weather records

Advertising

Launceston Weather History for the Previous 24 Hours

Scroll right to see more
 ConditionsComfort  
Time TempWeatherWind HumidityBarometerVisibility
10:00 pm
Fri, Jan 20
54 °FPassing clouds.9 mph82%29.62 "HgN/A
9:30 pm55 °FPassing clouds.13 mph77%29.62 "HgN/A
9:00 pm55 °FOvercast.9 mph77%29.59 "HgN/A
8:30 pm57 °FOvercast.14 mph72%29.59 "HgN/A
8:00 pm59 °FOvercast.10 mph68%29.56 "HgN/A
7:30 pm59 °FBroken clouds.15 mph68%29.53 "HgN/A
7:00 pm59 °FMostly cloudy.15 mph72%29.53 "HgN/A
6:30 pm59 °FMostly cloudy.15 mph68%29.50 "HgN/A
6:00 pm59 °FBroken clouds.17 mph68%29.50 "HgN/A
5:30 pm61 °FScattered clouds.22 mph63%29.47 "HgN/A
5:00 pm61 °FBroken clouds.21 mph63%29.47 "HgN/A
4:33 pm61 °FScattered clouds.23 mph63%29.45 "HgN/A
4:00 pm59 °FScattered clouds.25 mph72%29.42 "HgN/A
3:30 pm59 °FBroken clouds.23 mph77%29.42 "HgN/A
3:00 pm55 °FLight rain. Broken clouds.24 mph88%29.39 "HgN/A
2:31 pm55 °FLight rain. Broken clouds.24 mph88%29.39 "Hg6 mi
2:21 pm55 °FRain. More clouds than sun.22 mph94%29.39 "Hg4 mi
2:00 pm54 °FRain. Overcast.22 mph94%29.39 "Hg5 mi
1:30 pm54 °FRain. Broken clouds.21 mph94%29.39 "Hg3 mi
1:15 pm55 °FLight rain. Broken clouds.22 mph88%29.39 "Hg4 mi
1:00 pm54 °FLight rain. More clouds than sun.22 mph94%29.36 "HgN/A
12:30 pm54 °FLight rain. Mostly cloudy.25 mph88%29.36 "HgN/A
12:00 pm54 °FLight rain. More clouds than sun.24 mph94%29.33 "HgN/A
11:30 am55 °FLight rain. Cloudy.22 mph88%29.33 "HgN/A
11:00 am55 °FLight rain. More clouds than sun.23 mph88%29.33 "HgN/A
10:38 am54 °FRain. Overcast.23 mph94%29.33 "Hg6 mi
10:19 am54 °FHeavy rain. Mostly cloudy.24 mph94%29.33 "Hg4 mi
10:00 am54 °FHeavy rain. Overcast.21 mph94%29.36 "Hg4 mi
9:42 am54 °FHeavy rain. More clouds than sun.18 mph94%29.36 "Hg4 mi
9:22 am54 °FRain. Mostly cloudy.20 mph94%29.36 "Hg6 mi
9:00 am54 °FRain. Cloudy.16 mph94%29.39 "HgN/A
8:30 am54 °FRain. More clouds than sun.18 mph94%29.39 "Hg5 mi
8:00 am54 °FHeavy rain. Cloudy.18 mph94%29.42 "Hg3 mi
7:32 am54 °FRain. Broken clouds.17 mph94%29.42 "Hg4 mi
7:00 am54 °FHeavy rain. More clouds than sun.13 mph94%29.42 "Hg4 mi
6:30 am54 °FRain. Broken clouds.10 mph94%29.42 "HgN/A
6:04 am52 °FHeavy rain. Broken clouds.8 mph94%29.45 "Hg4 mi
5:50 am52 °FRain. Passing clouds.9 mph94%29.45 "Hg6 mi
5:35 am52 °FHeavy rain. Partly cloudy.9 mph94%29.47 "Hg4 mi
5:00 am52 °FRain. Mostly cloudy.13 mph88%29.50 "HgN/A
4:30 am55 °FRain. Partly cloudy.10 mph82%29.53 "Hg5 mi
4:00 am55 °FPartly cloudy.8 mph72%29.59 "HgN/A
3:30 am55 °FOvercast.3 mph72%29.62 "HgN/A
3:00 am54 °FPartly cloudy.6 mph72%29.65 "HgN/A
2:30 am55 °FPartly cloudy.No wind67%29.68 "HgN/A
2:00 am55 °FPassing clouds.3 mph67%29.71 "HgN/A
1:30 am55 °FClear.6 mph67%29.68 "HgN/A
1:00 am54 °FPassing clouds.6 mph72%29.68 "HgN/A
12:30 am54 °FPassing clouds.2 mph72%29.71 "HgN/A
12:00 am54 °FClear.6 mph72%29.71 "HgN/A
11:30 pm
Thu, Jan 19
55 °FClear.9 mph67%29.74 "HgN/A
11:00 pm55 °FClear.6 mph67%29.74 "HgN/A
Weather by CustomWeather, © 2017

See weather overviewHow to use our weather pages